TimeEST,TemperatureF,Dew PointF,Humidity,Sea Level PressureIn,VisibilityMPH,Wind Direction,Wind SpeedMPH,Gust SpeedMPH,PrecipitationIn,Events,Conditions,WindDirDegrees,DateUTC
12:53 AM,25.0,7.0,46,29.98,10.0,NNW,8.1,-,N/A,,Clear,340,2013-01-02 05:53:00
1:53 AM,24.1,7.0,48,30.00,10.0,NW,4.6,-,N/A,,Clear,320,2013-01-02 06:53:00
2:53 AM,23.0,7.0,50,30.00,10.0,NW,6.9,-,N/A,,Clear,320,2013-01-02 07:53:00
3:53 AM,21.9,7.0,53,29.99,10.0,NW,4.6,-,N/A,,Clear,320,2013-01-02 08:53:00
4:53 AM,21.9,8.1,55,30.01,10.0,NW,4.6,-,N/A,,Clear,320,2013-01-02 09:53:00
5:53 AM,21.0,7.0,55,30.01,10.0,NNW,4.6,-,N/A,,Scattered Clouds,330,2013-01-02 10:53:00
6:53 AM,21.0,8.1,57,30.01,10.0,Variable,4.6,-,N/A,,Scattered Clouds,0,2013-01-02 11:53:00
7:53 AM,21.0,8.1,57,30.01,10.0,WNW,3.5,-,N/A,,Mostly Cloudy,290,2013-01-02 12:53:00
8:53 AM,21.9,10.0,60,30.02,10.0,Variable,3.5,-,N/A,,Scattered Clouds,0,2013-01-02 13:53:00
9:53 AM,24.8,10.4,54,30.04,10.0,West,8.1,-,N/A,,Clear,270,2013-01-02 14:53:00
10:53 AM,25.0,10.9,55,30.03,10.0,West,8.1,-,N/A,,Scattered Clouds,260,2013-01-02 15:53:00
11:53 AM,27.0,10.9,51,30.00,10.0,Variable,5.8,-,N/A,,Mostly Cloudy,0,2013-01-02 16:53:00
12:53 PM,28.9,10.9,47,29.98,10.0,WNW,5.8,-,N/A,,Mostly Cloudy,290,2013-01-02 17:53:00
1:53 PM,30.9,12.0,46,29.99,10.0,WNW,5.8,-,N/A,,Mostly Cloudy,290,2013-01-02 18:53:00
2:53 PM,30.9,12.9,47,30.01,10.0,West,8.1,-,N/A,,Mostly Cloudy,280,2013-01-02 19:53:00
3:53 PM,32.0,14.0,48,30.03,10.0,WNW,6.9,-,N/A,,Mostly Cloudy,290,2013-01-02 20:53:00
4:53 PM,30.9,14.0,50,30.05,10.0,WNW,6.9,-,N/A,,Mostly Cloudy,290,2013-01-02 21:53:00
5:53 PM,30.9,15.1,52,30.07,10.0,WNW,5.8,-,N/A,,Mostly Cloudy,290,2013-01-02 22:53:00
6:53 PM,30.9,16.0,54,30.09,10.0,West,8.1,-,N/A,,Clear,280,2013-01-02 23:53:00
7:53 PM,30.2,15.8,55,30.10,10.0,WNW,5.8,-,N/A,,Partly Cloudy,300,2013-01-03 00:53:00
8:53 PM,27.0,15.1,61,30.11,10.0,North,3.5,-,N/A,,Partly Cloudy,360,2013-01-03 01:53:00
9:53 PM,28.9,15.1,56,30.13,10.0,NW,4.6,-,N/A,,Clear,320,2013-01-03 02:53:00
10:53 PM,28.4,14.0,55,30.14,10.0,NNW,5.8,-,N/A,,Clear,330,2013-01-03 03:53:00
11:53 PM,27.0,14.0,58,30.15,10.0,NNW,6.9,-,N/A,,Clear,330,2013-01-03 04:53:00